BG9VZ-13 Weather Reports


Display with metric or nautical units.
time (UTC)temp
F
wind
direction
speed
MPH
gust
MPH
rain 1hr
in
rain 24hr
in
rain mn
in
humidity
%
barometer
mb
20260509010610 65 0 0.0 0.0 0.00 0.00 0.00 43 776.6
20260509003610 64 0 0.0 0.0 0.00 0.00 0.00 43 776.7
20260509000612 64 0 0.0 0.0 0.00 0.00 0.00 43 776.7
20260508233613 64 0 0.0 0.0 0.00 0.00 0.00 43 776.4
20260508230614 64 0 0.0 0.0 0.00 0.00 0.00 43 776.2
20260508223615 64 0 0.0 0.0 0.00 0.00 0.00 43 775.8
20260508220616 64 0 0.0 0.0 0.00 0.00 0.00 43 775.6
20260508213617 64 0 0.0 0.0 0.00 0.00 0.00 43 775.5
20260508210618 64 0 0.0 0.0 0.00 0.00 0.00 43 775.5
20260508203620 64 0 0.0 0.0 0.00 0.00 0.00 43 775.4
20260508200621 64 0 0.0 0.0 0.00 0.00 0.00 43 775.5
20260508193621 64 0 0.0 0.0 0.00 0.00 0.00 42 775.5
20260508190623 64 0 0.0 0.0 0.00 0.00 0.00 42 775.5
20260508183624 64 0 0.0 0.0 0.00 0.00 0.00 42 775.4
20260508180625 64 0 0.0 0.0 0.00 0.00 0.00 42 775.4
20260508173626 64 0 0.0 0.0 0.00 0.00 0.00 42 775.4
20260508170627 64 0 0.0 0.0 0.00 0.00 0.00 42 775.5
20260508163628 64 0 0.0 0.0 0.00 0.00 0.00 42 775.6
20260508160629 64 0 0.0 0.0 0.00 0.00 0.00 41 775.7
20260508153630 64 0 0.0 0.0 0.00 0.00 0.00 41 775.5
20260508150631 65 0 0.0 0.0 0.00 0.00 0.00 41 775.7
20260508143632 65 0 0.0 0.0 0.00 0.00 0.00 41 775.5
20260508140633 65 0 0.0 0.0 0.00 0.00 0.00 40 775.4
20260508133635 65 0 0.0 0.0 0.00 0.00 0.00 40 774.8
20260508130636 65 0 0.0 0.0 0.00 0.00 0.00 40 774.3
20260508123637 65 0 0.0 0.0 0.00 0.00 0.00 39 774.2
20260508120638 65 0 0.0 0.0 0.00 0.00 0.00 39 773.6
20260508113639 65 0 0.0 0.0 0.00 0.00 0.00 38 773.1
20260508110640 65 0 0.0 0.0 0.00 0.00 0.00 38 772.5
20260508103641 65 0 0.0 0.0 0.00 0.00 0.00 37 771.8
20260508100642 65 0 0.0 0.0 0.00 0.00 0.00 37 771.4
20260508093642 66 0 0.0 0.0 0.00 0.00 0.00 35 770.5
20260508090643 66 0 0.0 0.0 0.00 0.00 0.00 34 770.0
20260508083644 67 0 0.0 0.0 0.00 0.00 0.00 32 770.0
20260508080645 66 0 0.0 0.0 0.00 0.00 0.00 32 770.3
20260508073646 66 0 0.0 0.0 0.00 0.00 0.00 30 770.5
20260508070647 66 0 0.0 0.0 0.00 0.00 0.00 28 770.9
20260508063648 66 0 0.0 0.0 0.00 0.00 0.00 30 771.4
20260508060649 65 0 0.0 0.0 0.00 0.00 0.00 30 771.8
20260508053650 65 0 0.0 0.0 0.00 0.00 0.00 38 772.3
20260508050651 65 0 0.0 0.0 0.00 0.00 0.00 43 772.9
20260508043652 65 0 0.0 0.0 0.00 0.00 0.00 43 773.6
20260508040653 65 0 0.0 0.0 0.00 0.00 0.00 43 774.1
20260508033654 65 0 0.0 0.0 0.00 0.00 0.00 43 774.5
20260508030655 65 0 0.0 0.0 0.00 0.00 0.00 44 774.9
20260508023656 65 0 0.0 0.0 0.00 0.00 0.00 44 775.3
20260508020657 65 0 0.0 0.0 0.00 0.00 0.00 44 775.6
20260508013658 64 0 0.0 0.0 0.00 0.00 0.00 44 775.7